QPF
0.04 0.03 0.03 0.02 0.02 0.01 0.03 0.03 0.02 0.02 0.01 0.01 0.01 0.02 0.02 0.01 0.02 0.02 0.01 0.01 0.01 0.01 0.02 0.02 0.02 0.03 0.02 0.02 0.03 0.04 0.06 0.08 0.09 0.11 0.13 0.15 0.11 0.10 0.10 0.10 0.08 0.07 0.10
0.02 0.01 0.02 0.02 0.01 0.01 0.02 0.03 0.02 0.02 0.02 0.01 0.01 0.01 0.01 0.01 0.01 0.01 0.01 0.01 0.01 0.02 0.02 0.01 0.01 0.02 0.03 0.02 0.03 0.04 0.05 0.05 0.07 0.10 0.09 0.07 0.06 0.06 0.04 0.05 0.06 0.06 0.08
0.01 0.01 0.01 0.01 0.01 0.02 0.02 0.03 0.03 0.02 0.02 0.02 0.03 0.03 0.02 0.02 0.01 0.01 0.02 0.02 0.02 0.02 0.02 0.01 0.01 0.01 0.03 0.03 0.03 0.03 0.04 0.04 0.06 0.08 0.06 0.03 0.03 0.04 0.04 0.03 0.04 0.06 0.05
0.01 0.00 0.00 0.01 0.02 0.02 0.02 0.04 0.03 0.02 0.03 0.03 0.03 0.03 0.03 0.03 0.03 0.03 0.03 0.03 0.03 0.02 0.02 0.02 0.02 0.02 0.03 0.05 0.05 0.04 0.04 0.04 0.06 0.07 0.04 0.03 0.02 0.04 0.04 0.04 0.04 0.06 0.04
0.01 0.00 0.01 0.02 0.02 0.01 0.01 0.03 0.02 0.03 0.05 0.05 0.03 0.03 0.03 0.03 0.03 0.03 0.03 0.03 0.03 0.02 0.02 0.02 0.02 0.02 0.02 0.03 0.05 0.06 0.05 0.05 0.06 0.05 0.04 0.04 0.04 0.07 0.05 0.06 0.06 0.06 0.06
0.02 0.01 0.02 0.03 0.02 0.01 0.02 0.04 0.04 0.06 0.06 0.04 0.03 0.03 0.04 0.05 0.04 0.03 0.03 0.03 0.02 0.02 0.02 0.02 0.02 0.02 0.02 0.01 0.03 0.05 0.05 0.06 0.07 0.06 0.05 0.05 0.06 0.08 0.06 0.05 0.06 0.08 0.06
0.03 0.02 0.02 0.04 0.03 0.02 0.03 0.09 0.08 0.13 0.09 0.04 0.04 0.04 0.03 0.02 0.02 0.02 0.01 0.02 0.01 0.01 0.01 0.02 0.02 0.02 0.02 0.02 0.02 0.02 0.02 0.03 0.05 0.05 0.05 0.06 0.07 0.08 0.06 0.05 0.05 0.05 0.03
0.02 0.02 0.02 0.04 0.04 0.03 0.03 0.07 0.13 0.17 0.13 0.07 0.04 0.03 0.02 0.01 0.02 0.02 0.01 0.01 0.01 0.01 0.01 0.01 0.01 0.03 0.03 0.03 0.02 0.02 0.02 0.01 0.01 0.03 0.04 0.06 0.10 0.09 0.07 0.06 0.06 0.05 0.04
0.03 0.02 0.03 0.04 0.03 0.02 0.02 0.02 0.05 0.08 0.09 0.06 0.03 0.01 0.02 0.02 0.02 0.02 0.02 0.01 0.01 0.01 0.01 0.01 0.01 0.02 0.03 0.03 0.02 0.02 0.01 0.01 0.01 0.02 0.02 0.04 0.07 0.08 0.08 0.07 0.05 0.05 0.05
0.03 0.04 0.03 0.04 0.04 0.04 0.04 0.03 0.03 0.03 0.04 0.03 0.02 0.02 0.02 0.02 0.01 0.01 0.01 0.02 0.01 0.01 0.01 0.01 0.01 0.01 0.02 0.03 0.03 0.02 0.01 0.01 0.01 0.02 0.03 0.05 0.07 0.07 0.08 0.08 0.06 0.05 0.05
0.03 0.04 0.04 0.04 0.04 0.06 0.06 0.05 0.04 0.03 0.03 0.03 0.03 0.03 0.03 0.02 0.01 0.01 0.01 0.02 0.02 0.01 0.01 0.01 0.01 0.02 0.02 0.02 0.03 0.02 0.01 0.00 0.01 0.03 0.05 0.07 0.07 0.07 0.07 0.07 0.07 0.06 0.05
0.02 0.03 0.03 0.02 0.03 0.04 0.04 0.04 0.03 0.03 0.02 0.02 0.02 0.02 0.02 0.01 0.01 0.01 0.01 0.02 0.02 0.02 0.02 0.02 0.02 0.02 0.01 0.01 0.01 0.01 0.01 0.01 0.01 0.02 0.06 0.08 0.08 0.07 0.06 0.05 0.06 0.07 0.06
0.02 0.02 0.02 0.02 0.01 0.01 0.01 0.01 0.02 0.02 0.02 0.02 0.02 0.03 0.02 0.02 0.02 0.01 0.01 0.01 0.02 0.02 0.01 0.01 0.01 0.01 0.01 0.01 0.01 0.02 0.02 0.01 0.01 0.02 0.06 0.08 0.07 0.05 0.05 0.06 0.07 0.08 0.08
0.02 0.02 0.02 0.01 0.01 0.01 0.00 0.00 0.00 0.01 0.01 0.02 0.02 0.02 0.02 0.02 0.02 0.01 0.01 0.01 0.01 0.01 0.01 0.01 0.01 0.01 0.01 0.01 0.02 0.03 0.02 0.01 0.01 0.03 0.04 0.05 0.07 0.07 0.06 0.06 0.07 0.08 0.08
0.05 0.05 0.02 0.01 0.01 0.01 0.01 0.01 0.00 0.00 0.00 0.01 0.02 0.02 0.02 0.02 0.01 0.01 0.01 0.02 0.01 0.01 0.02 0.02 0.02 0.02 0.02 0.02 0.01 0.02 0.02 0.01 0.01 0.02 0.02 0.04 0.05 0.04 0.05 0.04 0.04 0.07 0.08
0.04 0.04 0.03 0.02 0.01 0.01 0.01 0.01 0.01 0.00 0.01 0.01 0.02 0.02 0.01 0.01 0.01 0.01 0.02 0.02 0.01 0.01 0.02 0.01 0.02 0.01 0.01 0.02 0.01 0.01 0.01 0.02 0.03 0.02 0.02 0.02 0.03 0.04 0.04 0.04 0.03 0.05 0.04
0.04 0.04 0.03 0.03 0.02 0.02 0.02 0.01 0.01 0.01 0.01 0.00 0.01 0.01 0.02 0.02 0.02 0.01 0.01 0.02 0.02 0.02 0.01 0.02 0.03 0.02 0.01 0.01 0.01 0.01 0.02 0.02 0.03 0.03 0.01 0.01 0.02 0.03 0.05 0.05 0.04 0.04 0.04
0.03 0.04 0.03 0.03 0.03 0.03 0.04 0.03 0.03 0.02 0.02 0.01 0.01 0.01 0.01 0.01 0.02 0.02 0.01 0.01 0.02 0.01 0.01 0.01 0.02 0.03 0.02 0.01 0.01 0.01 0.02 0.02 0.02 0.03 0.02 0.01 0.01 0.02 0.03 0.03 0.03 0.04 0.03
0.02 0.03 0.04 0.04 0.04 0.04 0.04 0.04 0.03 0.03 0.02 0.01 0.02 0.02 0.01 0.02 0.02 0.02 0.02 0.02 0.02 0.01 0.01 0.01 0.01 0.02 0.02 0.02 0.01 0.01 0.01 0.01 0.02 0.03 0.03 0.02 0.01 0.02 0.02 0.02 0.03 0.04 0.04
0.01 0.02 0.04 0.07 0.06 0.05 0.05 0.05 0.04 0.03 0.03 0.03 0.03 0.03 0.03 0.03 0.03 0.03 0.03 0.03 0.03 0.02 0.01 0.01 0.02 0.03 0.02 0.01 0.01 0.01 0.01 0.01 0.01 0.02 0.03 0.03 0.02 0.02 0.01 0.02 0.03 0.02 0.03
0.01 0.01 0.02 0.05 0.08 0.05 0.04 0.06 0.04 0.03 0.03 0.02 0.02 0.02 0.03 0.04 0.04 0.03 0.03 0.03 0.03 0.02 0.02 0.01 0.01 0.01 0.02 0.01 0.01 0.01 0.01 0.01 0.01 0.02 0.03 0.03 0.02 0.02 0.01 0.01 0.02 0.01 0.02
0.01 0.01 0.02 0.02 0.05 0.05 0.03 0.04 0.06 0.04 0.03 0.03 0.03 0.03 0.02 0.03 0.04 0.04 0.04 0.04 0.04 0.03 0.02 0.01 0.01 0.01 0.01 0.01 0.01 0.01 0.02 0.02 0.02 0.02 0.02 0.02 0.02 0.02 0.02 0.01 0.01 0.02 0.02
0.00 0.01 0.01 0.01 0.02 0.03 0.04 0.04 0.05 0.05 0.06 0.06 0.04 0.03 0.02 0.02 0.02 0.03 0.04 0.06 0.06 0.05 0.04 0.02 0.02 0.02 0.01 0.01 0.01 0.01 0.01 0.03 0.03 0.02 0.02 0.03 0.03 0.02 0.02 0.01 0.01 0.02 0.03
0.01 0.01 0.01 0.01 0.02 0.02 0.02 0.03 0.06 0.07 0.09 0.10 0.06 0.04 0.03 0.02 0.02 0.02 0.02 0.04 0.06 0.06 0.06 0.04 0.03 0.03 0.03 0.04 0.03 0.02 0.02 0.02 0.03 0.04 0.04 0.03 0.02 0.01 0.01 0.01 0.01 0.02 0.02
0.01 0.01 0.01 0.01 0.01 0.01 0.01 0.01 0.02 0.04 0.07 0.11 0.10 0.06 0.04 0.04 0.03 0.02 0.02 0.02 0.03 0.03 0.04 0.05 0.04 0.04 0.04 0.04 0.04 0.04 0.02 0.02 0.02 0.02 0.03 0.04 0.03 0.02 0.01 0.01 0.01 0.01 0.01
0.01 0.01 0.02 0.01 0.01 0.01 0.01 0.01 0.01 0.01 0.02 0.05 0.08 0.08 0.07 0.06 0.04 0.02 0.02 0.02 0.02 0.03 0.03 0.03 0.03 0.03 0.03 0.03 0.04 0.04 0.03 0.02 0.02 0.02 0.02 0.03 0.03 0.03 0.02 0.01 0.01 0.01 0.01
MSLP
1012.71 1012.28 1011.98 1011.85 1011.88 1012.03 1012.21 1012.36 1012.44 1012.43 1012.35 1012.24 1012.15 1012.10 1012.11 1012.19 1012.29 1012.39 1012.46 1012.49 1012.47 1012.42 1012.36 1012.31 1012.29 1012.31 1012.35 1012.43 1012.50 1012.58 1012.66 1012.73 1012.80 1012.86 1012.92 1012.95 1012.96 1012.94 1012.87 1012.78 1012.66 1012.53 1012.42
1012.51 1012.17 1011.95 1011.91 1012.01 1012.19 1012.38 1012.52 1012.57 1012.54 1012.44 1012.34 1012.26 1012.26 1012.32 1012.45 1012.59 1012.72 1012.80 1012.82 1012.79 1012.73 1012.66 1012.61 1012.60 1012.62 1012.68 1012.75 1012.82 1012.89 1012.95 1013.02 1013.08 1013.15 1013.22 1013.26 1013.28 1013.26 1013.19 1013.08 1012.93 1012.78 1012.64
1012.22 1011.97 1011.85 1011.90 1012.07 1012.31 1012.52 1012.67 1012.71 1012.67 1012.57 1012.47 1012.42 1012.44 1012.55 1012.70 1012.86 1013.00 1013.07 1013.08 1013.04 1012.98 1012.91 1012.87 1012.88 1012.92 1012.99 1013.07 1013.14 1013.21 1013.26 1013.32 1013.38 1013.45 1013.52 1013.57 1013.59 1013.57 1013.49 1013.36 1013.20 1013.03 1012.87
1011.90 1011.73 1011.72 1011.86 1012.12 1012.41 1012.66 1012.82 1012.87 1012.81 1012.71 1012.62 1012.59 1012.63 1012.75 1012.91 1013.08 1013.21 1013.27 1013.27 1013.22 1013.16 1013.11 1013.10 1013.13 1013.21 1013.30 1013.39 1013.47 1013.54 1013.59 1013.63 1013.69 1013.75 1013.82 1013.87 1013.89 1013.86 1013.77 1013.62 1013.44 1013.25 1013.08
1011.62 1011.53 1011.61 1011.84 1012.18 1012.52 1012.80 1012.97 1013.01 1012.95 1012.85 1012.76 1012.74 1012.79 1012.92 1013.09 1013.25 1013.36 1013.41 1013.40 1013.35 1013.30 1013.27 1013.30 1013.37 1013.48 1013.61 1013.73 1013.82 1013.88 1013.93 1013.97 1014.01 1014.07 1014.13 1014.17 1014.18 1014.13 1014.03 1013.86 1013.67 1013.46 1013.27
1011.44 1011.42 1011.58 1011.88 1012.27 1012.65 1012.95 1013.11 1013.15 1013.08 1012.97 1012.88 1012.86 1012.93 1013.06 1013.23 1013.38 1013.48 1013.53 1013.51 1013.47 1013.43 1013.44 1013.50 1013.62 1013.78 1013.94 1014.08 1014.18 1014.25 1014.29 1014.32 1014.35 1014.40 1014.44 1014.47 1014.47 1014.40 1014.28 1014.10 1013.88 1013.66 1013.46
1011.40 1011.44 1011.65 1012.00 1012.42 1012.80 1013.09 1013.24 1013.25 1013.17 1013.06 1012.97 1012.97 1013.04 1013.19 1013.35 1013.51 1013.61 1013.65 1013.63 1013.60 1013.59 1013.63 1013.74 1013.89 1014.09 1014.28 1014.44 1014.56 1014.63 1014.67 1014.69 1014.71 1014.75 1014.78 1014.79 1014.76 1014.68 1014.53 1014.33 1014.09 1013.86 1013.65
1011.49 1011.57 1011.81 1012.19 1012.60 1012.97 1013.23 1013.35 1013.33 1013.23 1013.12 1013.05 1013.06 1013.16 1013.33 1013.51 1013.67 1013.78 1013.82 1013.81 1013.79 1013.80 1013.87 1014.00 1014.20 1014.42 1014.64 1014.82 1014.95 1015.03 1015.07 1015.08 1015.10 1015.11 1015.13 1015.12 1015.08 1014.97 1014.80 1014.58 1014.33 1014.08 1013.86
1011.66 1011.77 1012.03 1012.41 1012.80 1013.13 1013.35 1013.43 1013.39 1013.28 1013.18 1013.14 1013.19 1013.32 1013.51 1013.72 1013.89 1014.01 1014.05 1014.05 1014.04 1014.07 1014.15 1014.31 1014.52 1014.77 1015.01 1015.20 1015.35 1015.43 1015.47 1015.49 1015.49 1015.50 1015.50 1015.48 1015.42 1015.29 1015.11 1014.87 1014.60 1014.34 1014.11
1011.83 1011.97 1012.25 1012.62 1012.98 1013.27 1013.44 1013.48 1013.43 1013.33 1013.26 1013.26 1013.35 1013.53 1013.76 1014.00 1014.19 1014.31 1014.35 1014.35 1014.35 1014.37 1014.47 1014.63 1014.86 1015.12 1015.37 1015.58 1015.74 1015.83 1015.88 1015.89 1015.90 1015.90 1015.89 1015.86 1015.79 1015.65 1015.46 1015.21 1014.94 1014.66 1014.42
1011.94 1012.12 1012.41 1012.76 1013.09 1013.34 1013.47 1013.50 1013.45 1013.38 1013.35 1013.41 1013.57 1013.80 1014.07 1014.33 1014.53 1014.65 1014.69 1014.69 1014.67 1014.70 1014.79 1014.96 1015.19 1015.46 1015.72 1015.94 1016.11 1016.22 1016.28 1016.31 1016.31 1016.31 1016.30 1016.26 1016.18 1016.04 1015.85 1015.60 1015.33 1015.06 1014.81
1011.93 1012.15 1012.47 1012.80 1013.11 1013.34 1013.46 1013.48 1013.46 1013.44 1013.47 1013.60 1013.82 1014.10 1014.41 1014.68 1014.89 1015.01 1015.04 1015.02 1015.00 1015.02 1015.11 1015.27 1015.51 1015.78 1016.05 1016.30 1016.48 1016.61 1016.68 1016.72 1016.73 1016.74 1016.72 1016.68 1016.60 1016.47 1016.28 1016.05 1015.79 1015.53 1015.29
1011.78 1012.06 1012.39 1012.73 1013.03 1013.25 1013.37 1013.43 1013.45 1013.50 1013.61 1013.80 1014.07 1014.40 1014.73 1015.01 1015.22 1015.33 1015.35 1015.33 1015.30 1015.32 1015.41 1015.58 1015.82 1016.10 1016.39 1016.65 1016.85 1017.00 1017.09 1017.14 1017.16 1017.17 1017.15 1017.11 1017.04 1016.92 1016.75 1016.55 1016.31 1016.07 1015.84
1011.52 1011.84 1012.19 1012.55 1012.85 1013.08 1013.24 1013.34 1013.43 1013.55 1013.73 1013.98 1014.30 1014.65 1014.99 1015.27 1015.47 1015.57 1015.59 1015.58 1015.56 1015.59 1015.69 1015.87 1016.13 1016.43 1016.73 1017.01 1017.24 1017.41 1017.52 1017.58 1017.61 1017.61 1017.59 1017.55 1017.48 1017.38 1017.24 1017.07 1016.87 1016.65 1016.44
1011.16 1011.52 1011.90 1012.27 1012.60 1012.86 1013.07 1013.23 1013.39 1013.58 1013.83 1014.13 1014.47 1014.83 1015.16 1015.43 1015.62 1015.72 1015.75 1015.75 1015.77 1015.83 1015.96 1016.18 1016.46 1016.78 1017.11 1017.40 1017.66 1017.84 1017.97 1018.04 1018.07 1018.07 1018.05 1018.01 1017.94 1017.85 1017.73 1017.59 1017.43 1017.25 1017.07
1010.75 1011.14 1011.55 1011.94 1012.31 1012.62 1012.88 1013.12 1013.36 1013.61 1013.90 1014.23 1014.57 1014.91 1015.22 1015.47 1015.64 1015.75 1015.82 1015.86 1015.93 1016.05 1016.24 1016.50 1016.82 1017.16 1017.51 1017.84 1018.11 1018.31 1018.45 1018.53 1018.57 1018.56 1018.52 1018.47 1018.40 1018.31 1018.21 1018.10 1017.98 1017.84 1017.69
1010.35 1010.76 1011.18 1011.61 1012.01 1012.38 1012.72 1013.03 1013.34 1013.65 1013.96 1014.29 1014.62 1014.92 1015.19 1015.41 1015.58 1015.71 1015.82 1015.93 1016.07 1016.27 1016.53 1016.84 1017.20 1017.58 1017.95 1018.29 1018.58 1018.80 1018.96 1019.05 1019.08 1019.06 1019.02 1018.94 1018.86 1018.77 1018.68 1018.59 1018.49 1018.38 1018.26
1009.97 1010.39 1010.83 1011.29 1011.74 1012.17 1012.59 1012.98 1013.35 1013.71 1014.04 1014.35 1014.63 1014.89 1015.11 1015.30 1015.46 1015.62 1015.79 1015.98 1016.21 1016.49 1016.83 1017.20 1017.60 1018.01 1018.40 1018.76 1019.06 1019.30 1019.47 1019.57 1019.60 1019.58 1019.52 1019.43 1019.33 1019.22 1019.12 1019.03 1018.95 1018.87 1018.77
1009.63 1010.05 1010.52 1011.01 1011.51 1012.02 1012.51 1012.99 1013.42 1013.81 1014.14 1014.42 1014.66 1014.85 1015.02 1015.18 1015.34 1015.53 1015.76 1016.03 1016.36 1016.72 1017.13 1017.56 1018.00 1018.43 1018.83 1019.20 1019.52 1019.78 1019.96 1020.08 1020.12 1020.10 1020.03 1019.92 1019.80 1019.67 1019.55 1019.45 1019.37 1019.30 1019.22
1009.32 1009.75 1010.24 1010.77 1011.33 1011.91 1012.49 1013.04 1013.53 1013.95 1014.28 1014.53 1014.71 1014.85 1014.97 1015.10 1015.26 1015.48 1015.77 1016.12 1016.52 1016.96 1017.43 1017.90 1018.36 1018.80 1019.21 1019.59 1019.91 1020.19 1020.40 1020.54 1020.61 1020.60 1020.53 1020.41 1020.26 1020.11 1019.97 1019.85 1019.76 1019.69 1019.61
1009.03 1009.48 1009.99 1010.56 1011.18 1011.83 1012.49 1013.11 1013.66 1014.11 1014.45 1014.67 1014.82 1014.90 1014.98 1015.08 1015.25 1015.49 1015.83 1016.23 1016.70 1017.19 1017.70 1018.19 1018.66 1019.10 1019.50 1019.88 1020.22 1020.51 1020.75 1020.93 1021.03 1021.05 1020.99 1020.87 1020.71 1020.54 1020.37 1020.23 1020.12 1020.04 1019.97
1008.75 1009.22 1009.75 1010.36 1011.03 1011.75 1012.47 1013.15 1013.76 1014.25 1014.60 1014.83 1014.95 1015.00 1015.05 1015.14 1015.31 1015.57 1015.94 1016.38 1016.88 1017.41 1017.92 1018.42 1018.87 1019.30 1019.69 1020.06 1020.41 1020.73 1021.01 1021.23 1021.37 1021.43 1021.39 1021.29 1021.13 1020.95 1020.76 1020.60 1020.47 1020.37 1020.29
1008.46 1008.96 1009.52 1010.16 1010.87 1011.63 1012.40 1013.14 1013.80 1014.33 1014.71 1014.95 1015.07 1015.12 1015.17 1015.26 1015.43 1015.71 1016.09 1016.55 1017.07 1017.59 1018.10 1018.57 1019.00 1019.40 1019.77 1020.13 1020.48 1020.82 1021.14 1021.41 1021.60 1021.71 1021.72 1021.64 1021.50 1021.31 1021.12 1020.94 1020.78 1020.67 1020.58
1008.18 1008.71 1009.29 1009.94 1010.66 1011.45 1012.25 1013.03 1013.74 1014.31 1014.73 1015.00 1015.15 1015.23 1015.29 1015.39 1015.58 1015.86 1016.25 1016.72 1017.22 1017.73 1018.22 1018.66 1019.05 1019.41 1019.76 1020.10 1020.45 1020.81 1021.16 1021.48 1021.72 1021.89 1021.95 1021.91 1021.79 1021.62 1021.43 1021.23 1021.06 1020.93 1020.82
1007.91 1008.47 1009.06 1009.70 1010.42 1011.20 1012.02 1012.82 1013.55 1014.17 1014.63 1014.95 1015.15 1015.27 1015.38 1015.51 1015.71 1016.01 1016.41 1016.86 1017.35 1017.83 1018.28 1018.68 1019.03 1019.36 1019.68 1020.00 1020.35 1020.72 1021.10 1021.45 1021.75 1021.96 1022.07 1022.08 1022.00 1021.86 1021.67 1021.47 1021.29 1021.13 1021.00
1007.68 1008.26 1008.84 1009.47 1010.16 1010.92 1011.71 1012.51 1013.26 1013.91 1014.42 1014.80 1015.06 1015.24 1015.40 1015.58 1015.81 1016.13 1016.52 1016.96 1017.43 1017.88 1018.29 1018.66 1018.98 1019.27 1019.56 1019.87 1020.21 1020.59 1020.97 1021.35 1021.68 1021.94 1022.10 1022.16 1022.12 1022.00 1021.84 1021.64 1021.45 1021.27 1021.11
Thickness
5759 5763 5764 5764 5764 5764 5764 5765 5765 5766 5766 5766 5767 5767 5767 5767 5768 5768 5769 5769 5770 5771 5771 5772 5772 5773 5773 5773 5772 5772 5771 5770 5770 5770 5769 5769 5770 5769 5769 5769 5769 5769 5770
5762 5762 5763 5763 5763 5763 5763 5763 5764 5764 5764 5764 5764 5765 5765 5765 5765 5765 5766 5766 5767 5767 5768 5769 5769 5769 5770 5770 5770 5769 5769 5768 5768 5767 5767 5767 5767 5767 5767 5767 5767 5767 5767
5761 5761 5761 5761 5761 5762 5762 5762 5762 5762 5762 5762 5762 5762 5762 5762 5762 5763 5763 5764 5764 5764 5765 5765 5766 5766 5766 5766 5767 5766 5766 5766 5765 5764 5764 5764 5764 5764 5764 5764 5764 5764 5765
5760 5760 5760 5760 5759 5760 5760 5760 5760 5761 5760 5760 5760 5759 5760 5759 5759 5760 5760 5761 5761 5761 5762 5762 5762 5763 5763 5763 5763 5763 5763 5763 5762 5761 5760 5760 5761 5761 5761 5761 5762 5762 5762
5759 5758 5758 5758 5757 5757 5758 5759 5760 5761 5760 5758 5757 5757 5757 5757 5757 5757 5757 5757 5758 5758 5758 5759 5759 5759 5759 5760 5760 5760 5759 5759 5758 5757 5757 5757 5757 5758 5758 5758 5758 5759 5759
5756 5756 5756 5755 5755 5755 5756 5757 5760 5761 5760 5757 5755 5754 5754 5754 5753 5753 5753 5754 5754 5754 5754 5755 5755 5755 5756 5756 5756 5756 5755 5755 5754 5753 5753 5754 5754 5754 5755 5755 5755 5756 5756
5753 5754 5753 5753 5753 5753 5754 5755 5757 5757 5756 5754 5751 5751 5750 5750 5750 5750 5750 5750 5750 5750 5751 5751 5751 5751 5751 5752 5752 5752 5752 5751 5750 5750 5750 5750 5750 5751 5752 5752 5752 5753 5753
5751 5751 5751 5751 5750 5751 5751 5751 5751 5750 5750 5749 5747 5747 5747 5746 5746 5746 5746 5746 5746 5746 5746 5747 5748 5748 5748 5747 5747 5747 5747 5747 5747 5746 5746 5747 5747 5748 5749 5749 5749 5750 5750
5749 5748 5747 5747 5747 5747 5748 5747 5746 5745 5745 5744 5743 5743 5743 5742 5742 5742 5741 5741 5742 5742 5742 5743 5743 5743 5743 5743 5743 5742 5742 5742 5742 5742 5742 5743 5744 5745 5745 5745 5745 5746 5747
5745 5744 5744 5744 5744 5744 5744 5744 5743 5742 5741 5740 5740 5739 5739 5738 5738 5738 5737 5738 5738 5738 5739 5739 5739 5739 5739 5739 5738 5738 5738 5738 5738 5738 5738 5738 5739 5740 5741 5741 5742 5742 5743
5740 5741 5741 5740 5740 5740 5740 5740 5739 5738 5738 5737 5737 5736 5735 5734 5734 5733 5733 5734 5734 5734 5735 5735 5735 5735 5734 5734 5734 5733 5733 5733 5733 5733 5734 5734 5735 5736 5737 5737 5737 5738 5739
5735 5737 5738 5737 5737 5737 5737 5736 5736 5735 5734 5733 5733 5733 5732 5731 5730 5730 5730 5730 5730 5730 5730 5730 5731 5730 5730 5729 5729 5729 5728 5728 5728 5729 5729 5730 5731 5731 5732 5733 5733 5734 5734
5734 5735 5735 5735 5734 5734 5734 5733 5732 5732 5731 5730 5730 5729 5729 5727 5727 5726 5726 5725 5725 5725 5725 5725 5725 5725 5725 5724 5724 5723 5723 5724 5724 5724 5724 5725 5726 5727 5727 5728 5728 5728 5729
5731 5732 5733 5733 5732 5731 5730 5730 5729 5729 5728 5727 5727 5726 5725 5724 5723 5722 5722 5721 5721 5721 5721 5721 5721 5720 5720 5720 5719 5718 5718 5718 5718 5719 5719 5720 5721 5722 5722 5723 5723 5724 5724
5728 5728 5730 5731 5730 5728 5727 5726 5726 5725 5725 5724 5724 5723 5722 5721 5720 5719 5718 5718 5717 5717 5717 5716 5716 5716 5715 5715 5714 5713 5713 5713 5713 5714 5714 5715 5715 5716 5717 5718 5718 5719 5719
5724 5725 5727 5727 5726 5725 5724 5723 5723 5723 5722 5721 5720 5720 5719 5718 5717 5715 5714 5714 5714 5714 5713 5712 5712 5711 5710 5710 5709 5709 5708 5708 5708 5709 5709 5710 5710 5711 5712 5713 5713 5714 5715
5722 5722 5723 5724 5723 5722 5721 5720 5720 5719 5718 5717 5716 5716 5715 5714 5713 5712 5711 5710 5710 5710 5709 5708 5707 5707 5706 5705 5704 5703 5703 5703 5704 5704 5704 5704 5705 5705 5706 5707 5707 5708 5710
5720 5719 5719 5720 5719 5718 5717 5717 5716 5715 5714 5713 5712 5712 5711 5710 5709 5708 5707 5706 5706 5706 5705 5704 5702 5701 5699 5699 5698 5698 5698 5698 5699 5699 5700 5700 5700 5700 5701 5701 5702 5703 5704
5717 5716 5715 5715 5714 5713 5713 5712 5711 5711 5710 5708 5708 5707 5706 5706 5705 5704 5703 5702 5702 5701 5700 5700 5697 5696 5694 5693 5693 5693 5693 5693 5694 5694 5695 5695 5695 5695 5696 5696 5696 5697 5698
5714 5713 5712 5710 5710 5709 5708 5707 5705 5705 5704 5703 5702 5702 5701 5701 5700 5700 5699 5697 5697 5696 5695 5694 5692 5691 5690 5689 5690 5688 5688 5688 5689 5689 5689 5690 5690 5690 5691 5691 5691 5691 5692
5709 5708 5707 5706 5705 5704 5702 5700 5698 5696 5697 5697 5697 5697 5697 5696 5695 5695 5694 5693 5692 5690 5689 5689 5688 5686 5684 5685 5682 5680 5681 5683 5683 5683 5684 5684 5684 5685 5685 5685 5685 5686 5686
5704 5703 5703 5702 5701 5701 5699 5697 5695 5693 5692 5692 5692 5692 5692 5691 5690 5690 5689 5687 5686 5685 5684 5684 5683 5680 5679 5680 5677 5672 5669 5671 5675 5678 5678 5678 5679 5679 5680 5680 5680 5681 5681
5699 5699 5699 5698 5697 5697 5696 5693 5691 5688 5686 5685 5685 5685 5686 5686 5685 5685 5684 5683 5682 5680 5679 5678 5678 5676 5673 5673 5674 5670 5664 5662 5664 5669 5671 5673 5673 5674 5674 5675 5675 5676 5677
5697 5697 5696 5694 5694 5692 5691 5689 5685 5681 5679 5679 5679 5680 5680 5680 5680 5679 5679 5678 5677 5675 5674 5673 5672 5671 5669 5667 5667 5668 5666 5665 5660 5659 5663 5665 5667 5668 5668 5670 5670 5671 5671
5695 5694 5692 5690 5689 5688 5686 5685 5681 5678 5677 5675 5674 5674 5674 5674 5674 5673 5673 5672 5671 5670 5669 5668 5667 5667 5665 5663 5662 5662 5661 5660 5659 5656 5654 5656 5659 5661 5663 5664 5665 5665 5666
5692 5690 5688 5685 5684 5683 5682 5680 5678 5675 5673 5670 5668 5667 5666 5666 5667 5667 5667 5666 5665 5665 5664 5663 5662 5661 5660 5659 5658 5658 5657 5656 5654 5652 5650 5649 5650 5654 5656 5658 5659 5660 5661